Home   Weather   Wainwright   Past weeks

Flag for USA Past Weather in Wainwright, Alaska, USA — Yesterday and Last 2 Weeks

Now
-21 °F

Light snow. Clear.


Feels Like: -40 °F
Forecast: -8 / -4 °F
Wind: 8 mph from Southwest

Location: Wainwright Distant Early Warning

Current Time: Jan 20, 2017 at 5:31:36 pm

Latest Report: Jan 20, 2017 at 4:53 pm


Visibility: 6 mi

Pressure: 29.57 "Hg

Humidity: 76%

Dew Point: -26 °F

Location of WainwrightLocation

Past Weather in Wainwright — Graph

°F

Wainwright Temperature Yesterday

Maximum temperature yesterday: -13 °F (at 4:53 am)
Minimum temperature yesterday: -29 °F (at 9:53 pm)
Average temperature yesterday: -22 °F

High & Low Weather Summary for the Past Weeks

 TemperatureHumidityPressure
High27 °F (Jan 6, 11:53 pm)100% (Jan 7, 3:53 pm)31.00 "Hg (Jan 7, 3:53 pm)
Low-36 °F (Jan 16, 4:53 pm)67% (Jan 17, 6:53 pm)28.06 "Hg (Jan 5, 11:53 pm)
Average-4 °F84%29.89 "Hg
* Reported Jan 5 3:53 pm — Jan 20 3:53 pm, Wainwright, Weather by CustomWeather, © 2017

Note: Actual official high and low records may vary slightly from our data, if they occured in-between our weather recording intervals... More about our weather records

Advertising

Wainwright Weather History for the Previous 24 Hours

Scroll right to see more
 ConditionsComfort  
Time TempWeatherWind HumidityBarometerVisibility
3:53 pm
Fri, Jan 20
-13 °FLight snow. Passing clouds.12 mph78%29.55 "Hg7 mi
2:53 pm-19 °FLight snow. Overcast.8 mph77%29.55 "Hg5 mi
2:12 pm-19 °FLight snow. Ice fog.9 mph80%29.55 "Hg4 mi
1:53 pm-18 °FLight snow. Overcast.10 mph77%29.55 "Hg4 mi
1:09 pm-18 °FLight snow. Ice fog.12 mph81%29.55 "Hg2 mi
12:53 pm-19 °FLight snow. Ice fog.12 mph80%29.55 "Hg3 mi
12:16 pm-19 °FLight snow. Overcast.9 mph77%29.54 "Hg3 mi
12:03 pm-19 °FLight snow. Ice fog.9 mph80%29.54 "Hg2 mi
10:53 am-21 °FLight snow. Passing clouds.10 mph76%29.54 "Hg6 mi
9:53 am-19 °FLight snow. Mostly cloudy.9 mph77%29.54 "Hg4 mi
8:53 am-27 °FIce fog.7 mph80%29.54 "Hg5 mi
7:53 am-23 °FLight snow. Mostly cloudy.8 mph77%29.53 "Hg4 mi
6:53 am-20 °FLight snow. Partly cloudy.10 mph76%29.53 "Hg6 mi
5:53 am-24 °FMostly cloudy.3 mph76%29.53 "Hg5 mi
4:53 am-25 °FPassing clouds.6 mph77%29.53 "Hg6 mi
4:03 am-24 °FOvercast.6 mph73%29.52 "Hg6 mi
2:53 am-25 °FOvercast.5 mph73%29.53 "Hg7 mi
1:53 am-29 °FMostly cloudy.3 mph75%29.53 "Hg6 mi
12:53 am-29 °FMostly cloudy.8 mphN/A29.53 "Hg6 mi
11:53 pm
Thu, Jan 19
-29 °FPassing clouds.8 mph72%29.53 "Hg6 mi
11:39 pm-29 °FPassing clouds.8 mph75%29.52 "Hg6 mi
10:53 pm-28 °FPassing clouds.10 mph71%29.53 "Hg7 mi
9:53 pm-29 °FLow clouds.9 mph75%29.52 "Hg5 mi
9:27 pm-28 °FPassing clouds.9 mph71%29.51 "Hg7 mi
9:05 pm-28 °FPassing clouds.8 mph75%29.51 "Hg8 mi
7:53 pm-26 °FMostly cloudy.7 mph72%29.52 "Hg6 mi
6:53 pm-27 °FPartly sunny.7 mph72%29.52 "Hg8 mi
5:53 pm-27 °FMostly cloudy.6 mph72%29.52 "Hg6 mi
5:19 pm-27 °FBroken clouds.7 mph76%29.52 "Hg5 mi
Weather by CustomWeather, © 2017

See weather overviewHow to use our weather pages